TimeCST,TemperatureF,Dew PointF,Humidity,Sea Level PressureIn,VisibilityMPH,Wind Direction,Wind SpeedMPH,Gust SpeedMPH,PrecipitationIn,Events,Conditions,WindDirDegrees,DateUTC
12:15 AM,28.9,21.2,73,30.28,10.0,SSW,5.8,-,N/A,,Clear,210,2013-01-05 06:15:00
12:35 AM,30.0,21.4,70,30.27,10.0,SSW,5.8,-,N/A,,Clear,210,2013-01-05 06:35:00
12:55 AM,30.0,21.6,71,30.27,10.0,SSW,5.8,-,N/A,,Clear,210,2013-01-05 06:55:00
1:15 AM,28.6,20.8,73,30.27,10.0,SSW,5.8,-,N/A,,Clear,210,2013-01-05 07:15:00
1:35 AM,30.0,21.6,71,30.27,10.0,SSW,6.9,-,N/A,,Clear,210,2013-01-05 07:35:00
1:55 AM,27.9,20.5,74,30.28,10.0,SSW,4.6,-,N/A,,Clear,200,2013-01-05 07:55:00
2:15 AM,27.5,20.5,75,30.27,10.0,SSW,4.6,-,N/A,,Clear,210,2013-01-05 08:15:00
2:35 AM,29.1,21.6,73,30.28,10.0,SSW,5.8,-,N/A,,Clear,210,2013-01-05 08:35:00
2:55 AM,29.3,21.4,72,30.28,10.0,SSW,4.6,-,N/A,,Clear,210,2013-01-05 08:55:00
3:15 AM,28.9,21.2,73,30.27,10.0,SSW,4.6,-,N/A,,Clear,200,2013-01-05 09:15:00
3:35 AM,27.5,20.7,75,30.26,10.0,South,3.5,-,N/A,,Clear,190,2013-01-05 09:35:00
3:55 AM,25.3,19.9,80,30.25,10.0,Calm,Calm,-,N/A,,Clear,0,2013-01-05 09:55:00
4:15 AM,24.4,19.8,82,30.25,10.0,South,4.6,-,N/A,,Clear,180,2013-01-05 10:15:00
4:35 AM,24.1,19.9,84,30.25,10.0,Calm,Calm,-,N/A,,Scattered Clouds,0,2013-01-05 10:35:00
4:55 AM,24.1,20.1,85,30.25,10.0,SSW,4.6,-,N/A,,Scattered Clouds,200,2013-01-05 10:55:00
5:15 AM,24.8,20.1,82,30.25,10.0,South,5.8,-,N/A,,Mostly Cloudy,190,2013-01-05 11:15:00
5:35 AM,28.2,21.9,77,30.24,10.0,South,4.6,-,N/A,,Scattered Clouds,180,2013-01-05 11:35:00
5:55 AM,28.0,21.7,77,30.25,10.0,SSW,3.5,-,N/A,,Clear,200,2013-01-05 11:55:00
6:15 AM,28.9,22.1,76,30.25,10.0,South,4.6,-,N/A,,Clear,190,2013-01-05 12:15:00
6:35 AM,30.0,23.0,75,30.25,10.0,SSW,4.6,-,N/A,,Clear,200,2013-01-05 12:35:00
6:55 AM,30.2,23.0,75,30.25,10.0,SSW,5.8,-,N/A,,Clear,200,2013-01-05 12:55:00
7:15 AM,31.3,23.9,74,30.26,10.0,SSW,4.6,-,N/A,,Clear,200,2013-01-05 13:15:00
7:35 AM,31.3,24.3,75,30.25,10.0,Calm,Calm,-,N/A,,Clear,0,2013-01-05 13:35:00
7:55 AM,30.6,24.3,77,30.25,10.0,Calm,Calm,-,N/A,,Clear,0,2013-01-05 13:55:00
8:15 AM,32.0,24.8,75,30.25,10.0,SSW,5.8,-,N/A,,Clear,210,2013-01-05 14:15:00
8:35 AM,32.0,25.0,75,30.26,10.0,South,6.9,-,N/A,,Scattered Clouds,190,2013-01-05 14:35:00
8:55 AM,32.5,25.3,75,30.26,10.0,SSW,5.8,-,N/A,,Mostly Cloudy,200,2013-01-05 14:55:00
9:15 AM,33.1,25.7,74,30.27,10.0,SSW,6.9,-,N/A,,Mostly Cloudy,210,2013-01-05 15:15:00
9:55 AM,34.7,25.9,70,30.27,10.0,SW,6.9,-,N/A,,Mostly Cloudy,230,2013-01-05 15:55:00
10:15 AM,35.8,27.1,71,30.27,10.0,WSW,8.1,-,N/A,,Mostly Cloudy,250,2013-01-05 16:15:00
10:35 AM,37.4,30.2,75,30.26,10.0,WSW,10.4,-,N/A,,Scattered Clouds,240,2013-01-05 16:35:00
10:55 AM,36.5,31.3,81,30.25,10.0,SW,4.6,-,N/A,,Mostly Cloudy,220,2013-01-05 16:55:00
11:15 AM,37.0,32.0,82,30.23,10.0,SSW,5.8,-,N/A,,Scattered Clouds,210,2013-01-05 17:15:00
11:35 AM,38.1,31.8,78,30.19,10.0,SSW,4.6,-,N/A,,Clear,210,2013-01-05 17:35:00
11:55 AM,39.2,31.8,75,30.17,10.0,SSE,9.2,-,N/A,,Scattered Clouds,160,2013-01-05 17:55:00
12:15 PM,38.5,30.2,72,30.17,10.0,South,6.9,-,N/A,,Scattered Clouds,190,2013-01-05 18:15:00
12:35 PM,37.9,30.7,75,30.16,10.0,South,5.8,-,N/A,,Overcast,180,2013-01-05 18:35:00
12:55 PM,38.5,30.7,74,30.16,10.0,South,8.1,-,N/A,,Overcast,180,2013-01-05 18:55:00
1:15 PM,38.5,30.6,73,30.14,10.0,South,6.9,-,N/A,,Overcast,190,2013-01-05 19:15:00
1:35 PM,38.3,30.9,75,30.13,10.0,SSW,8.1,-,N/A,,Overcast,200,2013-01-05 19:35:00
1:55 PM,39.2,30.9,72,30.13,10.0,SW,11.5,-,N/A,,Overcast,220,2013-01-05 19:55:00
2:15 PM,38.3,31.6,77,30.13,10.0,SW,15.0,20.7,N/A,Rain,Light Rain,220,2013-01-05 20:15:00
2:35 PM,36.5,32.7,86,30.13,7.0,SW,11.5,-,N/A,Rain,Light Rain,220,2013-01-05 20:35:00
2:55 PM,36.3,33.1,88,30.12,7.0,SSW,15.0,19.6,N/A,Rain,Light Rain,210,2013-01-05 20:55:00
3:15 PM,36.3,33.3,89,30.12,7.0,SSW,10.4,-,0.01,Rain,Light Rain,210,2013-01-05 21:15:00
3:35 PM,36.5,33.6,89,30.12,10.0,SSW,12.7,17.3,0.01,Rain,Light Rain,200,2013-01-05 21:35:00
3:55 PM,36.5,33.8,90,30.12,7.0,SSW,10.4,16.1,0.02,Rain,Light Rain,200,2013-01-05 21:55:00
4:15 PM,36.1,33.8,91,30.11,10.0,South,10.4,-,N/A,Rain,Light Rain,190,2013-01-05 22:15:00
4:55 PM,36.5,33.8,90,30.11,10.0,South,9.2,-,N/A,,Light Drizzle,190,2013-01-05 22:55:00
5:15 PM,36.5,33.8,90,30.11,10.0,South,8.1,-,N/A,Rain,Light Rain,190,2013-01-05 23:15:00
5:35 PM,36.5,33.4,89,30.11,10.0,SSW,11.5,-,N/A,,Overcast,200,2013-01-05 23:35:00
5:55 PM,37.4,33.8,87,30.12,10.0,SSW,10.4,-,N/A,,Overcast,200,2013-01-05 23:55:00
6:15 PM,37.4,33.1,84,30.12,10.0,SSW,12.7,19.6,N/A,,Overcast,210,2013-01-06 00:15:00
6:35 PM,37.4,32.9,84,30.11,10.0,SSW,11.5,-,N/A,,Overcast,210,2013-01-06 00:35:00
6:55 PM,37.6,32.9,83,30.12,10.0,SSW,10.4,-,N/A,,Overcast,210,2013-01-06 00:55:00
7:15 PM,37.8,32.9,83,30.12,10.0,SSW,11.5,-,N/A,,Overcast,210,2013-01-06 01:15:00
7:35 PM,38.1,32.9,81,30.11,10.0,SSW,12.7,-,N/A,,Overcast,210,2013-01-06 01:35:00
7:55 PM,39.2,32.0,75,30.11,10.0,SSW,10.4,-,N/A,,Overcast,200,2013-01-06 01:55:00
8:15 PM,38.3,32.4,79,30.10,10.0,SSW,10.4,-,N/A,,Overcast,200,2013-01-06 02:15:00
8:35 PM,38.5,32.2,78,30.10,10.0,SSW,11.5,-,N/A,,Overcast,210,2013-01-06 02:35:00
8:55 PM,39.2,32.2,76,30.10,10.0,SSW,11.5,-,N/A,,Overcast,210,2013-01-06 02:55:00
9:15 PM,38.8,32.0,76,30.09,10.0,SSW,10.4,-,N/A,,Overcast,210,2013-01-06 03:15:00
9:35 PM,39.0,32.2,76,30.08,10.0,SSW,11.5,-,N/A,,Overcast,200,2013-01-06 03:35:00
9:55 PM,38.7,32.0,77,30.08,10.0,SSW,11.5,-,N/A,,Overcast,200,2013-01-06 03:55:00
10:15 PM,39.0,32.0,76,30.07,10.0,SSW,12.7,20.7,N/A,,Overcast,210,2013-01-06 04:15:00
10:35 PM,38.7,32.2,78,30.07,10.0,SW,11.5,-,N/A,,Overcast,220,2013-01-06 04:35:00
10:55 PM,38.7,32.2,78,30.07,10.0,SW,10.4,-,N/A,,Overcast,220,2013-01-06 04:55:00
11:15 PM,39.0,32.2,76,30.06,10.0,SW,11.5,-,N/A,,Overcast,220,2013-01-06 05:15:00
11:35 PM,39.2,32.2,76,30.06,10.0,SW,9.2,-,N/A,,Overcast,230,2013-01-06 05:35:00
11:55 PM,39.4,32.2,75,30.06,10.0,WSW,11.5,-,N/A,,Overcast,240,2013-01-06 05:55:00